This is the latest recevied weather packets stored in our database for station/object WD4DAN-13. If no packets are shown the sender has not sent any weather packets the latest 10 day(s).
| Time | Temp. | Humidity | Pressure | Rain* | Wind** | Luminosity | Snow |
|---|---|---|---|---|---|---|---|
| 1778096237 | 30.56° C | 55% | - | 0 mm | - | - | - |
| 1778095933 | 30.56° C | 54% | - | 0 mm | - | - | - |
| 1778095630 | 30.56° C | 54% | - | 0 mm | - | - | - |
| 1778095326 | 30.56° C | 55% | - | 0 mm | - | - | - |
| 1778095018 | 30.56° C | 56% | - | 0 mm | - | - | - |
| 1778094713 | 30.56° C | 56% | - | 0 mm | - | - | - |
| 1778094411 | 30° C | 55% | - | 0 mm | - | - | - |
| 1778094108 | 30° C | 56% | - | 0 mm | - | - | - |
| 1778093805 | 30.56° C | 56% | - | 0 mm | - | - | - |
| 1778093501 | 30° C | 56% | - | 0 mm | - | - | - |
| 1778093199 | 30.56° C | 57% | - | 0 mm | - | - | - |
| 1778092896 | 30° C | 55% | - | 0 mm | - | - | - |
| 1778092592 | 30° C | 56% | - | 0 mm | - | - | - |
| 1778092288 | 30° C | 57% | - | 0 mm | - | - | - |
| 1778091986 | 30° C | 57% | - | 0 mm | - | - | - |
| 1778091682 | 30.56° C | 57% | - | 0 mm | - | - | - |
| 1778091381 | 29.44° C | 55% | - | 0 mm | - | - | - |
| 1778091078 | 29.44° C | 58% | - | 0 mm | - | - | - |
| 1778090774 | 30° C | 57% | - | 0 mm | - | - | - |
| 1778090471 | 28.89° C | 61% | - | 0 mm | - | - | - |
| 1778090167 | 29.44° C | 58% | - | 0 mm | - | - | - |
| 1778089863 | 29.44° C | 58% | - | 0 mm | - | - | - |
| 1778089562 | 29.44° C | 60% | - | 0 mm | - | - | - |
| 1778089258 | 28.89° C | 59% | - | 0 mm | - | - | - |
| 1778088956 | 28.89° C | 59% | - | 0 mm | - | - | - |
* Rain latest hour (hover to see other rain measurements)
** Current wind speed in m/s (hover to see current wind gust speed)